Miscellaneous Local Product
Issued by NWS Hastings, NE

Home | Current Version | Previous Version | Graphics & Text | Print | Product List | Glossary On
Versions: 1 2 3 4 5 6 7 8 9 10 11 12 13 14 15 16 17 18 19 20 21 22 23 24 25 26 27 28 29 30 31 32 33 34 35 36 37 38 39 40 41 42 43 44 45 46 47 48 49 50
000
AXUS43 KGID 290202
MISGRI

GID CWA HOURLY WEATHER ROUNDUP
NATIONAL WEATHER SERVICE HASTINGS NE
900 PM CDT WED SEP 28 2016

NOTE: "FAIR" INDICATES FEW OR NO CLOUDS BELOW 12,000 FEET WITH NO
SIGNIFICANT WEATHER AND/OR OBSTRUCTIONS TO VISIBILITY.

...SOUTH CENTRAL NEBRASKA...

CITY           SKY/WX    TMP DP  RH WIND       PRES   REMARKS
GRAND ISLAND   CLEAR     52  43  71 NE6       30.31R
HASTINGS       CLEAR     55  42  61 E5        30.32R
KEARNEY        CLEAR     54  39  58 NE5       30.31R
ORD            CLEAR     55  41  59 NE5       30.31R
YORK           CLEAR     52  45  76 NE7       30.31R
AURORA         CLEAR     51  44  79 NE6       30.31R
LEXINGTON      CLEAR     52  42  70 E8        30.31R
HOLDREGE       CLEAR     55  44  66 E8        30.30R
HEBRON         CLEAR     55  43  65 NE3       30.29R

...NEBRASKA PANHANDLE...

CITY           SKY/WX    TMP DP  RH WIND       PRES   REMARKS
CHADRON        CLEAR     63  45  51 E7        30.28R
ALLIANCE       CLEAR     59  45  59 E9        30.31R
SCOTTSBLUFF    CLEAR     61  46  57 E7        30.29R
SIDNEY         CLEAR     57  36  45 SE8       30.33R

...WESTERN AND NORTH CENTRAL NEBRASKA...

CITY           SKY/WX    TMP DP  RH WIND       PRES   REMARKS
VALENTINE      CLEAR     53  40  61 E6        30.33R
AINSWORTH      CLEAR     51  46  82 E7        30.33R
ONEILL         CLEAR     51  43  73 E5        30.34R
BROKEN BOW     CLEAR     54  44  69 CALM      30.32R
IMPERIAL       CLEAR     59  39  47 E9        30.30R
NORTH PLATTE   CLEAR     52  36  54 E5        30.31R
MCCOOK         CLEAR     60  39  45 E7        30.29R

...EASTERN NEBRASKA...

CITY           SKY/WX    TMP DP  RH WIND       PRES   REMARKS
NORFOLK        CLEAR     54  43  66 E3        30.32R
SO SIOUX CITY  CLEAR     56  47  71 N8        30.32R
TEKAMAH        CLEAR     49  45  86 N7        30.31R
COLUMBUS       CLEAR     52  37  58 E3        30.33R
ALBION         CLEAR     54  43  66 NE8       30.32R
OMAHA EPPLEY   PTCLDY    54  47  77 N6        30.29R
OFFUTT AFB     PTCLDY    57  47  71 N7        30.28R
MILLARD        CLEAR     58  47  66 CALM      30.29R
LINCOLN        CLEAR     53  46  77 NE7       30.32R
NEBRASKA CITY  CLEAR     55  43  64 N6        30.28R
BEATRICE       CLEAR     55  46  70 NE3       30.28R
FALLS CITY     MOCLDY    56  49  77 N3        30.26R

...NORTHERN KANSAS...

CITY           SKY/WX    TMP DP  RH WIND       PRES   REMARKS
GOODLAND       CLEAR     58  43  57 SE6       30.30R
HILL CITY      CLEAR     55  41  59 NE9       30.29R
NORTON         CLEAR     55  28  35 NE8       30.29R
PHILLIPSBURG   CLEAR     59  45  58 NE6       30.29R
SMITH CENTER   CLEAR     55  43  62 NE9       30.29R
HAYS           CLEAR     55  37  50 NE8       30.28R
RUSSELL        CLEAR     57  47  69 E9        30.26R
CONCORDIA      CLEAR     57  46  66 NE3       30.28R
SALINA         CLEAR     63  45  51 NE5       30.27R
TOPEKA         CLEAR     56  48  74 N7        30.25R



USA.gov is the U.S. government's official web portal to all federal, state and local government web resources and services.